This demonstration page uses our WeatherBlox Daily Observations layout. Learn more.

Left ArrowRight Arrow

Hourly Observations for May 8, 2017

Temp ( °F °C ) Dew Point ( °F °C ) Humidity (%) Winds ( mph kmh ) Pressure ( in mb ) Visibility ( mi km ) Precip ( " mm )
12:56 am 00:56 Clear 68 19.9 52 11.1 57 57 S 6 9 29.88 1012 10 16 0.00 0.00
1:56 am 01:56 Mostly Clear 68 19.8 53 11.8 60 60 SSE 10 17 29.86 1011 10 16 0.00 0.00
2:56 am 02:56 Mostly Cloudy 68 20.2 54 12.2 60 60 S 10 17 29.86 1011 10 16 0.00 0.00
3:56 am 03:56 Mostly Clear 67 19.6 54 12.4 63 63 S 9 15 29.85 1011 10 16 0.00 0.00
4:56 am 04:56 Mostly Cloudy with Nearby Thunderstorms 68 19.9 54 12.4 62 62 SSE 6 9 29.86 1011 10 16 0.00 0.00
5:56 am 05:56 Cloudy 68 20.2 53 11.4 57 57 S 14 22 29.83 1010 10 16 0.00 0.00
6:56 am 06:56 Cloudy 69 20.3 52 11.2 56 56 S 12 19 29.84 1010 10 16 0.00 0.00
7:56 am 07:56 Cloudy 69 20.4 52 11.3 56 56 E 9 15 29.90 1013 10 16 0.00 0.00
8:56 am 08:56 Mostly Cloudy 71 21.4 54 12 55 55 SE 14 22 29.90 1013 10 16 0.00 0.00
9:56 am 09:56 Mostly Cloudy 73 22.8 56 13.3 55 55 SE 16 26 29.89 1012 10 16 0.00 0.00
10:56 am 10:56 Partly Cloudy 76 24.5 56 13.4 50 50 SSE 15 24 29.89 1012 10 16 0.00 0.00
11:56 am 11:56 Sunny 80 26.5 57 13.9 46 46 SSE 12 19 29.87 1012 10 16 0.00 0.00
12:56 pm 12:56 Sunny 84 29 57 14 40 40 S 16 26 29.85 1011 10 16 0.00 0.00
1:02 pm 13:02 Sunny 86 30 55 13 35 35 SSW 16 26 29.84 1010 10 16 0.00 0.00
1:56 pm 13:56 Mostly Sunny 86 30.1 55 12.5 34 34 SSW 14 22 29.84 1010 10 16 0.00 0.00
2:56 pm 14:56 Sunny 89 31.6 54 12.4 31 31 SW 13 20 29.83 1010 10 16 0.00 0.00
3:56 pm 15:56 Sunny 91 32.5 56 13.6 32 32 SSW 12 19 29.79 1009 10 16 0.00 0.00
4:56 pm 16:56 Sunny 92 33.5 51 10.7 25 25 SW 16 26 29.77 1008 10 16 0.00 0.00
5:45 pm 17:45 Sunny 91 33 54 12 28 28 SSW 17 28 29.77 1008 10 16 0.00 0.00
5:56 pm 17:56 Sunny 91 32.8 53 11.9 28 28 SSW 15 24 29.77 1008 10 16 0.00 0.00
9:56 pm 21:56 Clear 77 24.8 58 14.6 53 53 NNW 6 9 29.84 1010 10 16 0.00 0.00
10:56 pm 22:56 Clear 71 21.7 58 14.3 63 63 NW 8 13 29.87 1012 10 16 0.00 0.00
11:56 pm 23:56 Clear 69 20.6 57 14 66 66 NW 7 11 29.88 1012 10 16 0.00 0.00

Powered by AerisWeather